Regional Weather Roundup
Issued by NWS

Home | Current Version | Previous Version | Graphics & Text | Print | Product List | Glossary On
Versions: 1 2 3 4 5 6 7 8 9 10 11 12 13 14 15 16 17 18 19 20 21 22 23 24 25 26 27 28 29 30 31 32 33 34 35 36 37 38 39 40 41 42 43 44 45 46 47 48 49 50
000
ASUS43 KFSD 240402
RWRSD

WEATHER ROUNDUP FOR SOUTH DAKOTA
NATIONAL WEATHER SERVICE SIOUX FALLS SD
1100 PM CDT WED JUL 23 2014

NOTE: "FAIR" INDICATES FEW OR NO CLOUDS BELOW 12,000 FEET WITH NO
SIGNIFICANT WEATHER AND/OR OBSTRUCTIONS TO VISIBILITY.


SDZ001>005-009-010-012>017-240500-
NORTHWEST AND NORTH CENTRAL SOUTH DAKOTA

CITY           SKY/WX    TMP DP  RH WIND       PRES   REMARKS
BUFFALO          N/A     72  58  61 E20       29.96S
FAITH            N/A     72  54  53 SE21      30.05S
MOBRIDGE         N/A     71  32  23 MISG      30.08S
$$

SDZ012>016-024>037-041>051-057-063-072>074-240500-
SOUTHWEST AND SOUTH CENTRAL SOUTH DAKOTA

CITY           SKY/WX    TMP DP  RH WIND       PRES   REMARKS
RAPID CTY ARPT PTCLDY    71  64  78 SE8       30.04F
PIERRE         CLEAR     73  57  57 SE16      30.08R
CUSTER         PTCLDY    68  62  81 E5        30.22R
ELLSWORTH AFB  CLEAR     73  65  78 S10       30.04F
PHILIP         MOCLDY    76  56  49 E13G21    30.04F
PINE RIDGE     PTCLDY    77  62  59 SE17G25   30.06F
WINNER         FAIR      71  56  58 SE8       30.12S
$$

SDZ004>011-016>023-039-040-240500-
NORTHEAST SOUTH DAKOTA

CITY           SKY/WX    TMP DP  RH WIND       PRES   REMARKS
ABERDEEN       CLEAR     65  58  78 E9        30.15S
WATERTOWN      CLEAR     68  55  63 E6        30.18S
SISSETON         N/A     63  60  90 CALM      30.16S
$$

SDZ017-020-022-023-036>040-048>070-240500-
SOUTHEAST SOUTH DAKOTA

CITY           SKY/WX    TMP DP  RH WIND       PRES   REMARKS
SIOUX FALLS    CLEAR     67  57  70 E7        30.17S
HURON          CLEAR     70  56  61 SE7       30.14S
CHAMBERLAIN    CLEAR     69  58  67 SE9       30.13S
MITCHELL       CLEAR     69  59  70 SE7       30.16R
YANKTON        CLEAR     70  61  73 E3        30.16F
$$

ABBREVIATIONS USED IN REMARKS
   TC - TEMPERATURE IN CELSIUS
  WCI - WIND CHILL INDEX
   HX - HEAT INDEX
  VSB - VISIBILITY




USA.gov is the U.S. government's official web portal to all federal, state and local government web resources and services.